Moose, Wyoming, United States (83012)
Lat: 43.66N, Lon: 110.72W
Wx Zone: WYZ013
Local Info
Past Weather Observations for Wednesday, April 16, 2014

NOTE: This archive is for the closest National Weather Service station to Moose. Information may differ from the station used for current weather conditions.

Time Weather Temperature Dewpoint Humidity Pressure Winds Precip Visibility
23:55
Clear
30°F / -1°C 19°F / -7°C 64% 30.04 in
(1017 mb)
Calm -
23:35
Clear
28°F / -2°C 21°F / -6°C 74% 30.04 in
(1017 mb)
Calm -
23:15
Clear
27°F / -3°C 19°F / -7°C 74% 30.04 in
(1017 mb)
Calm -
22:55
Clear
27°F / -3°C 21°F / -6°C 80% 30.04 in
(1017 mb)
Calm -
22:35
Clear
27°F / -3°C 21°F / -6°C 80% 30.04 in
(1017 mb)
N 3.5 mph
(N 6 kph)
-
22:15
Clear
27°F / -3°C 21°F / -6°C 80% 30.04 in
(1017 mb)
N 4.6 mph
(N 7 kph)
-
21:55
Clear
27°F / -3°C 21°F / -6°C 80% 30.04 in
(1017 mb)
NNW 4.6 mph
(NNW 7 kph)
-
21:35
Clear
28°F / -2°C 21°F / -6°C 74% 30.04 in
(1017 mb)
Calm -
21:15
Clear
30°F / -1°C 23°F / -5°C 75% 30.04 in
(1017 mb)
Calm -
20:55
Clear
34°F / 1°C 19°F / -7°C 56% 30.04 in
(1017 mb)
Calm -
20:35
Clear
32°F / 0°C 19°F / -7°C 60% 30.04 in
(1017 mb)
Calm -
20:15
Clear
34°F / 1°C 18°F / -8°C 51% 30.04 in
(1017 mb)
NW 3.5 mph
(NW 6 kph)
-
19:55
Clear
34°F / 1°C 19°F / -7°C 56% 30.04 in
(1017 mb)
Calm -
18:51
Clear
39°F / 4°C 14°F / -10°C 36% 30.01 in
(1016 mb)
SW 5.8 mph
(SW 9 kph)
- 10SM
17:55
Clear
43°F / 6°C 16°F / -9°C 34% 30.01 in
(1016 mb)
Calm - 10SM
16:51
Partly Cloudy
43°F / 6°C 16°F / -9°C 34% 30.01 in
(1016 mb)
SSW 6.9 mph
(SSW 11 kph)
- 10SM
15:51
Partly Cloudy
39°F / 4°C 19°F / -7°C 45% 29.98 in
(1015 mb)
NW 6.9 mph
(NW 11 kph)
- 10SM
14:57
Partly Cloudy
41°F / 5°C 12°F / -11°C 31% 29.98 in
(1015 mb)
Calm - 10SM
13:55
Mostly Cloudy
41°F / 5°C 14°F / -10°C 33% 30.01 in
(1016 mb)
Calm - 10SM
12:51
Mostly Cloudy
39°F / 4°C 16°F / -9°C 39% 30.01 in
(1016 mb)
Calm - 10SM
11:51
Partly Cloudy
37°F / 3°C 18°F / -8°C 45% 30.01 in
(1016 mb)
E 8.1 mph
(E 13 kph)
- 10SM
10:55
Partly Cloudy
36°F / 2°C 18°F / -8°C 48% 30.01 in
(1016 mb)
Calm - 10SM
09:53
Partly Cloudy
34°F / 1°C 21°F / -6°C 60% 30.01 in
(1016 mb)
Calm - 10SM
08:53
Clear
32°F / 0°C 19°F / -7°C 60% 30.01 in
(1016 mb)
Calm - 10SM
07:54
Clear
27°F / -3°C 21°F / -6°C 80% 30.01 in
(1016 mb)
Calm - 10SM
06:51
Clear
21°F / -6°C 19°F / -7°C 93% 30.01 in
(1016 mb)
Calm - 10SM
05:51
Clear
18°F / -8°C 18°F / -8°C 100% 29.98 in
(1015 mb)
Calm - 10SM
05:35
Clear
18°F / -8°C 16°F / -9°C 93% 29.98 in
(1015 mb)
N 6.9 mph
(N 11 kph)
- 10SM
05:15
Clear
19°F / -7°C 18°F / -8°C 93% 29.98 in
(1015 mb)
N 6.9 mph
(N 11 kph)
- 10SM
04:55
Clear
21°F / -6°C 19°F / -7°C 93% 29.98 in
(1015 mb)
NE 5.8 mph
(NE 9 kph)
- 10SM
04:35
Clear
21°F / -6°C 19°F / -7°C 93% 29.98 in
(1015 mb)
NE 6.9 mph
(NE 11 kph)
- 10SM
04:15
Clear
21°F / -6°C 19°F / -7°C 93% 29.98 in
(1015 mb)
NNE 5.8 mph
(NNE 9 kph)
- 10SM
03:55
Clear
19°F / -7°C 19°F / -7°C 100% 29.98 in
(1015 mb)
N 4.6 mph
(N 7 kph)
- 10SM
03:35
Clear
21°F / -6°C 19°F / -7°C 93% 29.98 in
(1015 mb)
N 4.6 mph
(N 7 kph)
- 10SM
03:15
Partly Cloudy
23°F / -5°C 21°F / -6°C 93% 29.98 in
(1015 mb)
N 4.6 mph
(N 7 kph)
- 10SM
02:55
Partly Cloudy
25°F / -4°C 19°F / -7°C 80% 29.98 in
(1015 mb)
Calm - 10SM
02:35
Clear
25°F / -4°C 19°F / -7°C 80% 29.95 in
(1014 mb)
SSW 3.5 mph
(SSW 6 kph)
- 10SM
02:15
Fair
25°F / -4°C 21°F / -6°C 86% 29.95 in
(1014 mb)
NE 4.6 mph
(NE 7 kph)
-
01:55
Clear
27°F / -3°C 21°F / -6°C 80% 29.95 in
(1014 mb)
N 4.6 mph
(N 7 kph)
- 10SM
01:35
Partly Cloudy
30°F / -1°C 19°F / -7°C 64% 29.95 in
(1014 mb)
W 8.1 mph
(W 13 kph)
- 10SM
01:15
Partly Cloudy
28°F / -2°C 19°F / -7°C 69% 29.95 in
(1014 mb)
W 8.1 mph
(W 13 kph)
-
00:55
Partly Cloudy
28°F / -2°C 19°F / -7°C 69% 29.95 in
(1014 mb)
Calm - 10SM
00:35
Partly Cloudy
28°F / -2°C 21°F / -6°C 74% 29.92 in
(1013 mb)
ESE 5.8 mph
(ESE 9 kph)
- 10SM
00:15
Clear
28°F / -2°C 21°F / -6°C 74% 29.92 in
(1013 mb)
E 5.8 mph
(E 9 kph)
-
Time Weather Temperature Dewpoint Humidity Pressure Winds Precip Visibility


Weather for websites

WeatherForYou.com, LLC is not responsible for any damages or problems caused by this service. Current weather conditions are obtained from the closest station including government and personal stations which may have varying degrees of accuracy. Weather forecasts are derived from the NOAA NDFD. Like all things, this site belongs to Jesus Christ... He just trusts me to maintain it. If you have any questions or comments email webmaster@weatherforyou.com

Copyright © 2014, WeatherForYou.com LLC. All rights reserved.